Location: Gajan
(43.0218°N, 1.1244°E)
Time: 16:18:54
(UTC+00:00)

FALCON 9 DEB - Pass Details

Date: 22 April 2021
Orbit: 364 x 381 km, 53.0° (Epoch: 12 May)

Event Time Altitude Azimuth Distance (km) Brightness Sun altitude
Rises 19:14:54 0° 211° (SSW) 2,187 6.8 -5.7°
Reaches altitude 10° 19:17:02 10° 201° (SSW) 1,344 5.6 -6.1°
Maximum altitude 19:19:44 31° 136° (SE) 668 3.6 -6.5°
Drops below altitude 10° 19:22:27 10° 72° (ENE) 1,355 5.2 -7.0°
Sets 19:24:37 0° 61° (ENE) 2,208 6.4 -7.3°
